Weather History for Monticello, AR

Change the Weather History Date:

Thursday, February 7, 2013

  Actual Average Record
Temperature  
Mean Temperature 60 °F -  
Max Temperature 68 °F 51 °F 76 °F (1974)
Min Temperature 51 °F 28 °F 11 °F (1988)
Degree Days  
Heating Degree Days 6    
Growing Degree Days 10 (Base 50)    
Moisture  
Dew Point 54 °F    
Average Humidity 85    
Maximum Humidity 100    
Minimum Humidity 63    
Precipitation  
Precipitation 0.03 in - - ()
Sea Level Pressure  
Sea Level Pressure 29.94 in    
Wind  
Wind Speed 1 mph (SSW)    
Max Wind Speed 8 mph    
Max Gust Speed -    
Visibility 9 miles    
Events Rain    
Averages and records for this station are not official NWS values.
T = Trace of Precipitation, MM = Missing Value Source: NWS Daily Summary

Daily Weather History Graph

Daily Weather History Graph

Search for Another Location

Airport:

Trip Planner

Search our weather history database for the weather conditions in past years. The results will help you decide how hot, cold, wet, or windy it might be!

Date:

Astronomy

Feb. 07, 2013 Rise Set
Actual Time 6:58 AM CST 5:44 PM CST
Civil Twilight 6:32 AM CST 6:10 PM CST
Nautical Twilight 6:03 AM CST 6:39 PM CST
Astronomical Twilight 5:34 AM CST 7:08 PM CST
Moon 4:33 AM CST (2/7) 3:13 PM CST (2/7)
Length of Visible Light 11h 37m
Length of Day
10h 45m
Waning Crescent, 9% of the Moon is Illuminated
Feb 7
Waning Crescent
Feb 10
New
Feb 17
First Quarter
Feb 25
Full
Mar 4
Last Quarter

Hourly Weather History & Observations

Time (CST) Temp. Dew Point Humidity Pressure Visibility Wind Dir Wind Speed Gust Speed Precip Events Conditions
12:53 AM 53.1 °F 48.9 °F 86% 29.99 in 10.0 mi Calm Calm - N/A   Overcast
1:53 AM 53.1 °F 48.9 °F 86% 29.98 in 10.0 mi Calm Calm - N/A   Overcast
2:17 AM 53.6 °F 48.2 °F 82% 29.98 in 10.0 mi Calm Calm - N/A   Overcast
2:53 AM 53.1 °F 48.9 °F 86% 29.97 in 10.0 mi Calm Calm - N/A   Overcast
3:53 AM 51.1 °F 48.9 °F 92% 29.96 in 10.0 mi Calm Calm - N/A   Mostly Cloudy
4:53 AM 53.1 °F 48.9 °F 86% 29.95 in 10.0 mi Calm Calm - 0.00 in Rain Light Rain
5:53 AM 53.1 °F 50.0 °F 89% 29.95 in 10.0 mi ENE 3.5 mph - 0.00 in   Overcast
6:15 AM 53.6 °F 50.0 °F 88% 29.95 in 10.0 mi Calm Calm - 0.00 in Rain Light Rain
6:42 AM 53.6 °F 51.8 °F 94% 29.94 in 8.0 mi Calm Calm - 0.00 in Rain Light Rain
6:53 AM 53.1 °F 51.1 °F 93% 29.95 in 8.0 mi Calm Calm - 0.00 in Rain Light Rain
7:26 AM 53.6 °F 51.8 °F 94% 29.95 in 2.0 mi Calm Calm - 0.02 in Rain Light Rain
7:36 AM 53.6 °F 51.8 °F 94% 29.95 in 3.0 mi ENE 3.5 mph - 0.02 in Rain Light Rain
7:53 AM 54.0 °F 52.0 °F 93% 29.95 in 4.0 mi Calm Calm - 0.02 in   Overcast
8:16 AM 53.6 °F 53.6 °F 100% 29.95 in 6.0 mi East 3.5 mph - N/A   Overcast
8:28 AM 55.4 °F 53.6 °F 94% 29.96 in 6.0 mi Calm Calm - N/A   Overcast
8:37 AM 55.4 °F 53.6 °F 94% 29.96 in 7.0 mi Calm Calm - N/A   Overcast
8:53 AM 55.9 °F 53.1 °F 90% 29.96 in 7.0 mi Calm Calm - N/A   Overcast
9:05 AM 55.4 °F 53.6 °F 94% 29.96 in 7.0 mi Calm Calm - N/A   Overcast
9:19 AM 55.4 °F 53.6 °F 94% 29.97 in 7.0 mi Calm Calm - N/A   Overcast
9:32 AM 55.4 °F 53.6 °F 94% 29.97 in 7.0 mi Calm Calm - N/A   Overcast
9:53 AM 55.9 °F 54.0 °F 93% 29.97 in 6.0 mi ESE 3.5 mph - N/A   Overcast
10:53 AM 59.0 °F 55.9 °F 90% 29.97 in 9.0 mi SE 3.5 mph - N/A   Overcast
11:28 AM 60.8 °F 57.2 °F 88% 29.96 in 10.0 mi SSE 4.6 mph - N/A   Overcast
11:53 AM 61.0 °F 57.0 °F 87% 29.96 in 10.0 mi Calm Calm - N/A   Overcast
12:17 PM 62.6 °F 57.2 °F 82% 29.95 in 10.0 mi Calm Calm - 0.01 in   Overcast
12:44 PM 64.4 °F 57.2 °F 77% 29.93 in 10.0 mi Calm Calm - 0.01 in   Overcast
12:53 PM 66.0 °F 57.0 °F 73% 29.92 in 10.0 mi Calm Calm - 0.01 in   Mostly Cloudy
1:10 PM 64.4 °F 57.2 °F 77% 29.92 in 10.0 mi SE 4.6 mph - N/A   Mostly Cloudy
1:39 PM 66.2 °F 55.4 °F 68% 29.90 in 10.0 mi South 3.5 mph - N/A   Overcast
1:53 PM 66.0 °F 55.9 °F 70% 29.89 in 10.0 mi Variable 3.5 mph - N/A   Overcast
2:53 PM 68.0 °F 55.0 °F 63% 29.88 in 10.0 mi SSW 8.1 mph - N/A   Overcast
3:53 PM 68.0 °F 55.0 °F 63% 29.88 in 10.0 mi SW 6.9 mph - N/A   Mostly Cloudy
4:53 PM 66.0 °F 55.9 °F 70% 29.87 in 10.0 mi Calm Calm - N/A   Scattered Clouds
5:53 PM 63.0 °F 55.9 °F 78% 29.89 in 10.0 mi Calm Calm - N/A   Mostly Cloudy
6:53 PM 61.0 °F 55.9 °F 83% 29.91 in 10.0 mi West 3.5 mph - N/A   Overcast
7:53 PM 63.0 °F 55.9 °F 78% 29.90 in 10.0 mi Calm Calm - N/A   Overcast
8:23 PM 62.6 °F 55.4 °F 77% 29.91 in 10.0 mi West 4.6 mph - N/A   Overcast
8:41 PM 62.6 °F 55.4 °F 77% 29.91 in 10.0 mi West 3.5 mph - N/A   Overcast
8:53 PM 63.0 °F 55.0 °F 75% 29.91 in 10.0 mi West 3.5 mph - N/A   Overcast
9:53 PM 61.0 °F 55.0 °F 81% 29.91 in 10.0 mi Calm Calm - N/A   Mostly Cloudy
10:53 PM 57.0 °F 54.0 °F 89% 29.93 in 10.0 mi West 4.6 mph - N/A   Mostly Cloudy
11:53 PM 59.0 °F 55.0 °F 87% 29.94 in 10.0 mi West 5.8 mph - N/A   Overcast